www.pogodaiklimat.ru

Погода и климат >> Архив погоды >> Норвегия >> Хасвик аэропорт


ПОГОДА в Хасвик аэропорту

  • Прогноз погоды в Хасвик аэропорту
  • Монитор погоды в Хасвик аэропорту

АРХИВ ПОГОДЫ в Хасвик аэропорту

Время (UTC), дата Ветер
(напр.,м/с)
 
Видим.   Явления Облачность Т
(С)
Тd
(С)
f
(%)
Тe
(С)
Тes
(С)
Комфортность P
(гПа)
Po
(гПа)
Тmin
(С)
Tmax
(С)
R
(мм)
R24
(мм)
S
(см)
04 17.07 СЗ 2
{3}
н/о н/о +10.1 +10.1 100 +8 +8 1016.7 1015.8
05 17.07 СЗ 2
{3}
н/о н/о +10.3 +10.3 100 +9 +9 1016.4 1015.6
06 17.07 З 3
{4}
н/о н/о +10.3 +9.5 95 +8 +8 1016.1 1015.2 +7.4 +11.3
07 17.07 З 4
{5}
н/о н/о +11.1 +9.7 91 +9 +9 1015.7 1014.9
08 17.07 З 4
{5}
н/о н/о +10.9 +10.0 94 +8 +8 1015.6 1014.8
09 17.07 З 4
{6}
н/о н/о +10.4 +9.5 94 +8 +8 1015.5 1014.7
10 17.07 З 4
{5}
н/о н/о +10.4 +9.6 95 +8 +8 1015.3 1014.5
11 17.07 З 4
{5}
н/о н/о +10.3 +9.7 96 +8 +8 1015.2 1014.3
12 17.07 З 5
{7}
н/о н/о +11.0 +9.3 89 +8 +8 1014.8 1013.9
13 17.07 З 4
{7}
н/о н/о +11.0 +8.8 86 +9 +9 1014.6 1013.7
14 17.07 СЗ 3
{5}
н/о н/о +11.6 +6.9 73 +10 +10 1014.3 1013.5
15 17.07 ЮВ 4
{5}
н/о н/о +10.2 +8.0 86 +8 +8 1014.2 1013.4
16 17.07 В 2
{4}
н/о н/о +9.9 +7.7 86 +8 +8 1014.1 1013.2
17 17.07 СЗ 4
{5}
н/о н/о +10.1 +5.5 73 +8 +8 1014.1 1013.2
18 17.07 С 3
{7}
н/о н/о +9.5 +5.1 74 +7 +7 1014.1 1013.2 +9.5 +12.0
19 17.07 СЗ 3
{6}
н/о н/о +9.1 +6.2 82 +7 +7 1014.3 1013.4
20 17.07 С 3
{5}
н/о н/о +8.8 +6.4 85 +6 +6 1014.2 1013.4
21 17.07 СЗ 3
{5}
н/о н/о +8.4 +7.2 92 +6 +6 1014.4 1013.6
22 17.07 СЗ 2
{4}
н/о н/о +8.3 +7.4 94 +6 +6 1014.7 1013.8
23 17.07 СЗ 2
{4}
н/о н/о +8.2 +7.8 97 +6 +6 1014.8 1013.9
00 18.07 СЗ 1
{6}
н/о н/о +8.1 +7.4 95 +7 +7 1014.9 1014.0
01 18.07 СЗ 1
{3}
н/о н/о +8.2 +7.8 97 +7 +7 1015.0 1014.1
02 18.07 ЮЗ 1
{3}
н/о н/о +8.2 +7.9 98 +7 +7 1015.2 1014.4
03 18.07 ЮВ 2
{3}
н/о н/о +8.6 +8.2 97 +7 +7 1015.5 1014.6
04 18.07 В 3
{4}
н/о н/о +8.7 +8.4 98 +6 +6 1015.6 1014.8
05 18.07 В 4
{4}
н/о н/о +8.7 +8.3 97 +5 +5 1015.8 1014.9
06 18.07 В 4
{5}
н/о н/о +9.3 +7.7 90 +6 +6 1015.8 1014.9 +8.1 +9.4
07 18.07 В 5
{7}
н/о н/о +9.7 +7.1 84 +6 +6 1015.8 1014.9
08 18.07 В 4
{6}
н/о н/о +11.1 +7.2 77 +9 +9 1015.8 1014.9
09 18.07 В 5
{6}
н/о н/о +11.2 +7.5 78 +9 +9 1015.8 1015.0
10 18.07 ЮВ 5
{6}
н/о н/о +12.0 +8.1 77 +10 +10 1015.6 1014.7
11 18.07 ЮВ 3
{5}
н/о н/о +13.4 +8.3 71 +12 +12 1015.8 1014.9
12 18.07 З 3
{7}
н/о н/о +13.5 +8.2 70 +12 +12 1015.8 1015.0
13 18.07 СЗ 2
{4}
н/о н/о +14.0 +8.0 67 +14 +14 1015.7 1014.8
14 18.07 В 2
{3}
н/о н/о +14.7 +8.9 68 +14 +14 1015.7 1014.8
15 18.07 СЗ 3
{3}
н/о н/о +14.2 +8.6 69 +13 +13 1015.4 1014.6
16 18.07 ЮВ 1
{4}
н/о н/о +14.4 +9.6 73 +15 +15 1015.4 1014.6
17 18.07 ЮВ 3
{4}
н/о н/о +14.7 +9.9 73 +14 +14 1015.2 1014.4
18 18.07 ЮВ 3
{5}
н/о н/о +13.1 +9.7 80 +12 +12 1015.1 1014.3 +9.2 +15.1
19 18.07 ЮВ 3
{5}
н/о н/о +13.6 +9.7 77 +12 +12 1014.9 1014.1
20 18.07 ЮВ 4
{5}
н/о н/о +13.2 +9.1 76 +12 +12 1014.9 1014.1
21 18.07 В 3
{5}
н/о н/о +13.6 +8.9 73 +13 +13 1015.1 1014.2
22 18.07 В 4
{7}
н/о н/о +14.1 +7.9 66 +13 +13 1015.2 1014.3
23 18.07 В 4
{6}
н/о н/о +13.9 +7.9 67 +13 +13 1015.3 1014.5
00 19.07 В 5
{7}
н/о н/о +13.5 +7.7 68 +12 +12 1015.2 1014.4
01 19.07 В 6
{7}
н/о н/о +14.1 +7.6 65 +12 +12 1015.1 1014.3
02 19.07 В 5
{8}
н/о н/о +14.6 +7.7 63 +13 +13 1015.0 1014.2
03 19.07 В 5
{7}
н/о н/о +15.4 +7.7 60 +14 +14 1014.9 1014.0
04 19.07 В 6
{9}
н/о н/о +15.6 +7.9 60 +14 +14 1014.7 1013.8
05 19.07 В 6
{9}
н/о н/о +15.8 +8.3 61 +15 +15 1014.5 1013.7
06 19.07 В 7
{10}
н/о н/о +16.5 +8.2 58 +15 +15 1014.1 1013.3 +12.6 +16.6
07 19.07 В 7
{10}
н/о н/о +17.2 +8.9 58 +16 +16 1013.9 1013.1
08 19.07 В 7
{9}
н/о н/о +17.2 +9.1 59 +16 +16 1013.6 1012.7
09 19.07 В 7
{8}
н/о н/о +17.6 +9.5 59 +17 +17 1013.4 1012.6
10 19.07 ЮВ 5
{9}
н/о н/о +15.6 +10.2 70 +14 +14 1013.3 1012.5
11 19.07 В 6
{8}
н/о н/о +17.3 +9.2 59 +17 +17 1013.2 1012.3
12 19.07 В 7
{10}
н/о н/о +19.0 +8.9 52 +19 +19 1012.9 1012.1
13 19.07 В 5
{8}
н/о н/о +19.5 +8.5 49 +20 +20 1012.7 1011.9
14 19.07 В 6
{8}
н/о н/о +20.4 +8.1 45 +21 +21 комфорт 1012.3 1011.4
15 19.07 В 6
{8}
н/о н/о +20.5 +8.5 46 +22 +22 комфорт 1011.9 1011.1
17 19.07 В 4
{7}
н/о н/о +20.6 +8.9 47 +22 +22 комфорт 1011.6 1010.7
18 19.07 В 3
{8}
н/о н/о +20.0 +9.3 50 +22 +22 комфорт 1011.5 1010.7 +15.4 +20.9
19 19.07 СЗ 2
{3}
н/о н/о +16.6 +8.8 60 +17 +17 1011.5 1010.7
20 19.07 Ю 1
{4}
н/о н/о +17.1 +9.5 61 +18 +18 1011.5 1010.7
21 19.07 З 1
{2}
н/о н/о +15.0 +9.4 69 +16 +16 1011.4 1010.6
22 19.07 Ю 1
{2}
н/о н/о +15.0 +9.8 71 +16 +16 1011.4 1010.6
23 19.07 ЮВ 2
{3}
н/о н/о +14.4 +10.0 75 +14 +14 1011.5 1010.6
00 20.07 ЮВ 3
{4}
н/о н/о +14.1 +10.1 77 +13 +13 1011.6 1010.7
01 20.07 ЮВ 2
{3}
н/о н/о +13.9 +9.8 76 +13 +13 1011.6 1010.8
02 20.07 СЗ 2
{3}
н/о н/о +12.6 +9.6 82 +12 +12 1011.7 1010.8
03 20.07 СЗ 2
{3}
н/о н/о +14.0 +9.8 76 +14 +14 1011.8 1010.9
04 20.07 З 2
{4}
н/о н/о +14.3 +10.1 76 +14 +14 1011.8 1011.0
05 20.07 СЗ 2
{4}
н/о н/о +15.1 +10.3 73 +15 +15 1011.8 1011.0
06 20.07 СЗ 2
{4}
н/о н/о +15.0 +10.0 72 +15 +15 1012.0 1011.2 +12.0 +20.0
07 20.07 СЗ 3
{4}
н/о н/о +15.9 +9.6 66 +15 +15 1012.4 1011.6
08 20.07 СЗ 2
{4}
н/о н/о +18.1 +8.9 55 +19 +19 1012.5 1011.7
09 20.07 З 3
{4}
н/о н/о +17.2 +9.9 62 +17 +17 1012.8 1011.9
10 20.07 З 3
{4}
н/о н/о +18.2 +10.1 59 +19 +19 1012.9 1012.0
11 20.07 З 4
{5}
н/о н/о +17.6 +10.5 63 +17 +17 1013.1 1012.3
12 20.07 З 4
{5}
н/о н/о +19.4 +10.1 55 +20 +20 1013.3 1012.4
13 20.07 СЗ 5
{7}
н/о н/о +21.3 +9.2 46 +23 +23 комфорт 1013.3 1012.5
14 20.07 С 4
{8}
н/о н/о +21.5 +9.4 46 +23 +23 комфорт 1013.5 1012.7
15 20.07 ЮВ 3
{5}
н/о н/о +17.3 +9.7 61 +17 +17 1013.8 1013.0
16 20.07 ЮВ 2
{5}
н/о н/о +16.0 +9.0 63 +16 +16 1014.2 1013.3
17 20.07 ЮВ 2
{3}
н/о н/о +17.0 +9.9 63 +17 +17 1014.2 1013.4
18 20.07 ЮВ 2
{8}
н/о н/о +15.3 +8.8 65 +15 +15 1014.1 1013.3 +15.1 +22.0
19 20.07 штиль 0
{3}
н/о н/о +15.1 +9.5 69 +15 +15 1014.2 1013.4
20 20.07 З 1
{2}
н/о н/о +15.1 +10.3 73 +16 +16 1014.3 1013.5
21 20.07 З 1
{2}
н/о н/о +12.7 +9.4 80 +13 +13 1014.6 1013.7
22 20.07 З 2
{2}
н/о н/о +11.7 +10.9 95 +10 +10 1014.7 1013.9
23 20.07 В 1
{2}
н/о н/о +10.5 +10.5 100 +10 +10 1014.6 1013.7
00 21.07 ЮВ 1
{3}
н/о н/о +11.4 +10.6 95 +11 +11 1014.5 1013.6
01 21.07 В 2
{3}
н/о н/о +12.0 +11.2 95 +11 +11 1014.5 1013.6
02 21.07 ЮВ 3
{5}
н/о н/о +13.2 +9.8 80 +12 +12 1014.2 1013.4
03 21.07 ЮВ 4
{4}
н/о н/о +13.1 +9.9 81 +11 +11 1014.0 1013.2
04 21.07 ЮВ 5
{6}
н/о н/о +13.6 +8.7 72 +12 +12 1013.9 1013.0
05 21.07 ЮВ 4
{6}
н/о н/о +15.4 +8.6 64 +14 +14 1013.6 1012.7
06 21.07 В 6
{8}
н/о н/о +17.6 +8.2 54 +17 +17 1013.5 1012.6 +10.2 +17.6
07 21.07 В 5
{8}
н/о н/о +16.1 +10.0 67 +15 +15 1013.3 1012.5
08 21.07 ЮВ 6
{9}
н/о н/о +16.3 +9.7 65 +15 +15 1012.8 1012.0
09 21.07 В 7
{10}
н/о н/о +19.1 +9.6 54 +19 +19 1012.5 1011.6
10 21.07 В 7
{10}
н/о н/о +20.4 +9.9 51 +22 +22 комфорт 1012.4 1011.6
11 21.07 В 7
{9}
н/о н/о +21.4 +10.6 50 +23 +23 комфорт 1012.3 1011.5
12 21.07 ЮВ 5
{10}
н/о н/о +19.3 +10.1 55 +20 +20 1012.1 1011.3
13 21.07 Ю 2
{6}
н/о н/о +21.0 +10.8 52 +24 +24 комфорт 1011.9 1011.1
14 21.07 З 3
{4}
н/о н/о +18.8 +11.1 61 +20 +20 1011.8 1011.0
15 21.07 З 4
{5}
н/о н/о +18.9 +10.5 58 +20 +20 1011.4 1010.6
16 21.07 З 2
{4}
н/о н/о +18.6 +10.9 61 +20 +20 1011.4 1010.6
17 21.07 ЮВ 1
{2}
н/о н/о +17.2 +11.0 67 +18 +18 1011.6 1010.7
18 21.07 Ю 1
{6}
н/о н/о +18.0 +11.3 65 +19 +19 1011.5 1010.6 +15.0 +22.0
19 21.07 З 1
{2}
н/о н/о +16.9 +10.7 67 +18 +18 1011.3 1010.5
20 21.07 В 2
{2}
н/о н/о +15.7 +11.1 74 +16 +16 1011.4 1010.6
21 21.07 ЮВ 2
{3}
н/о н/о +16.1 +11.3 73 +16 +16 1011.4 1010.6
22 21.07 ЮВ 4
{6}
н/о н/о +16.7 +11.4 71 +16 +16 1011.5 1010.6
23 21.07 З 2
{5}
н/о н/о +17.3 +13.2 77 +18 +18 1011.0 1010.1
00 22.07 ЮВ 2
{6}
н/о н/о +14.4 +3.9 49 +14 +14 1011.2 1010.4
01 22.07 В 3
{3}
н/о н/о +15.0 +12.9 87 +14 +14 1011.3 1010.5
02 22.07 Ю 3
{4}
н/о н/о +17.8 +13.1 74 +18 +18 1011.1 1010.3
03 22.07 В 3
{4}
н/о н/о +16.0 +12.9 82 +16 +16 1010.9 1010.0
04 22.07 ЮВ 3
{4}
н/о н/о +15.1 +13.1 88 +14 +14 1010.8 1009.9
05 22.07 ЮВ 3
{4}
н/о н/о +16.9 +13.6 81 +17 +17 1010.7 1009.9
06 22.07 ЮВ 4
{4}
н/о н/о +20.1 +12.8 63 +22 +22 комфорт 1010.3 1009.4 +14.3 +20.2
07 22.07 ЮВ 5
{6}
н/о н/о +18.8 +12.8 68 +19 +19 1010.1 1009.2
08 22.07 ЮВ 5
{7}
н/о н/о +19.0 +12.7 67 +20 +20 1010.0 1009.1
09 22.07 ЮВ 4
{8}
н/о н/о +21.1 +12.3 57 +23 +23 комфорт 1009.9 1009.1
10 22.07 ЮВ 4
{7}
н/о н/о +21.9 +12.7 56 +24 +24 комфорт 1010.1 1009.2
11 22.07 ЮВ 2
{5}
н/о н/о +24.1 +13.0 50 +26 +26 жарко 1010.6 1009.8
12 22.07 СЗ 7
{11}
н/о н/о +16.5 +11.9 74 +15 +15 1012.1 1011.3
13 22.07 СЗ 7
{9}
н/о н/о +17.1 +12.8 76 +16 +16 1013.1 1012.2
14 22.07 З 5
{8}
н/о н/о +17.0 +12.9 77 +16 +16 1013.6 1012.8
15 22.07 З 4
{6}
н/о н/о +16.3 +13.0 81 +16 +16 1014.1 1013.3
16 22.07 СЗ 5
{7}
н/о н/о +16.3 +13.8 85 +15 +15 1014.2 1013.4
17 22.07 СЗ 5
{8}
н/о н/о +15.7 +13.9 89 +14 +14 1014.4 1013.6
18 22.07 СЗ 4
{9}
н/о н/о +15.5 +13.9 90 +14 +14 1014.8 1013.9 +15.4 +25.5
19 22.07 СЗ 5
{8}
н/о н/о +14.9 +13.8 93 +13 +13 1015.0 1014.2
20 22.07 СЗ 4
{6}
н/о н/о +14.3 +13.4 94 +13 +13 1015.3 1014.5
21 22.07 СЗ 5
{7}
н/о н/о +14.1 +12.7 91 +12 +12 1015.3 1014.5
22 22.07 З 2
{5}
н/о н/о +13.5 +12.7 95 +13 +13 1015.1 1014.3
23 22.07 З 3
{4}
н/о н/о +12.9 +12.9 100 +11 +11 1015.3 1014.5
00 23.07 З 3
{8}
н/о н/о +13.5 +13.4 99 +12 +12 1015.3 1014.4
01 23.07 ЮЗ 1
{3}
н/о н/о +13.2 +13.2 100 +13 +13 1015.1 1014.2
02 23.07 В 2
{5}
н/о н/о +12.7 +12.7 100 +12 +12 1015.0 1014.1
03 23.07 ЮВ 3
{4}
н/о н/о +12.8 +12.8 100 +11 +11 1014.7 1013.9
04 23.07 ЮВ 1
{3}
н/о н/о +13.6 +13.5 99 +14 +14 1014.5 1013.7
05 23.07 В 2
{3}
н/о н/о +14.3 +12.5 89 +14 +14 1014.2 1013.3
06 23.07 ЮВ 2
{5}
н/о н/о +14.4 +11.9 85 +14 +14 1014.1 1013.3 +12.5 +15.5
07 23.07 В 2
{3}
н/о н/о +15.4 +12.2 81 +15 +15 1014.3 1013.4
08 23.07 В 2
{3}
н/о н/о +16.4 +13.0 80 +17 +17 1014.5 1013.6
09 23.07 ЮВ 2
{3}
н/о н/о +16.4 +13.0 80 +17 +17 1014.4 1013.5
10 23.07 В 2
{4}
н/о н/о +17.0 +12.9 77 +17 +17 1014.3 1013.5
11 23.07 СЗ 3
{3}
н/о н/о +16.7 +13.8 83 +16 +16 1014.2 1013.3
12 23.07 СЗ 3
{4}
н/о н/о +16.7 +13.6 82 +16 +16 1014.3 1013.4
13 23.07 СЗ 3
{4}
н/о н/о +17.8 +13.3 75 +18 +18 1014.3 1013.5
14 23.07 СЗ 2
{4}
н/о н/о +19.2 +13.4 69 +21 +21 комфорт 1014.0 1013.2
15 23.07 ЮВ 2
{3}
н/о н/о +20.0 +13.5 66 +23 +23 комфорт 1014.0 1013.1
17 23.07 ЮВ 2
{3}
н/о н/о +17.1 +14.0 82 +17 +17 1013.7 1012.9
18 23.07 ЮВ 2
{4}
н/о н/о +15.7 +14.1 90 +16 +16 1013.6 1012.8 +14.1 +22.1
19 23.07 В 1
{4}
н/о н/о +15.7 +14.1 90 +16 +16 1013.6 1012.8
20 23.07 ЮВ 3
{3}
н/о н/о +15.0 +14.5 97 +14 +14 1013.3 1012.4
21 23.07 В 7
{9}
н/о н/о +17.5 +13.8 79 +17 +17 1012.9 1012.1
22 23.07 СЗ 3
{9}
н/о н/о +15.3 +12.3 82 +15 +15 1012.9 1012.0
23 23.07 ЮВ 3
{3}
н/о н/о +14.7 +13.8 94 +14 +14 1012.9 1012.1
00 24.07 ЮВ 3
{9}
н/о н/о +16.1 +13.2 83 +16 +16 1012.6 1011.7
01 24.07 ЮВ 1
{4}
н/о н/о +15.5 +12.8 84 +16 +16 1012.4 1011.6
02 24.07 СЗ 7
{9}
н/о н/о +13.9 +13.9 100 +11 +11 1013.9 1013.1
03 24.07 СЗ 5
{9}
н/о н/о +14.0 +14.0 100 +12 +12 1014.1 1013.2
04 24.07 З 4
{6}
н/о н/о +13.3 +13.3 100 +11 +11 1014.3 1013.5

 

Местоположение метеостанции Хасвик аэропорт (Норвегия): широта 70.49 долгота 22.15 высота над уровнем моря 6 м.

В архиве по умолчанию представлена погода в Хасвик аэропорту за последнюю неделю. Архивные данные за месяц целиком и за предыдущие месяцы, начиная с января 2011 года, Вы можете получить, выбрав интересующий диапазон дат из раскрывающегося списка и нажав кнопку "Ввод!".


*Определитесь, кто Вы:
робот инопланетянин человек

Внимание! Время в таблицах - всемирное. Для получения местного времени необходимо прибавить поправку, которая равна 1 ч.

Смотрите также архив погоды в соседних городах и на ближайших метеорологических станциях:

Погода на Хасвике (Норвегия) (16 км)
Погода в Рогнсундете (Норвегия) (26 км)
Погода в Хаммерфест аэропорту (Норвегия) (50 км)
Погода в Альта аэропорту (Норвегия) (73 км)
Погода в Сёрхьюсен аэропорту (Норвегия) (90 км)
Погода на Маяке Fruholmen (Норвегия) (95 км)
Погода на Маяке Torsvag (Норвегия) (103 км)
Погода в Суоловуопми-Лулит (Норвегия) (114 км)
Погода в Банаке (Норвегия) (117 км)
Погода в Норднесфьеллете (Норвегия) (121 км)

Пояснения к столбцам:

Ветер - указаны скорость ветра в м/с - средняя за 10 мин, порывы в срок и между сроками (в фигурных скобках) и направление, откуда дует ветер: С - северный, СВ - северо-восточный, В - восточный, ЮВ - юго-восточный, Ю - южный, ЮЗ - юго-западный, З - западный, СЗ - северо-западный.
Видимость - горизонтальная дальность видимости в метрах или километрах. При видимости от 1 до 10 км при отсутствии осадков обычно наблюдается дымка, при ухудшении видимости до 1 км и менее - туман. В сухую погоду видимость может ухудшаться дымом, пылью или мглою.
Явления - указаны атмосферные явления, наблюдавшиеся в срок или в последний час перед сроком; фигурными скобками обозначены явления, наблюдавшиеся между сроками (за 1-3 часа до срока); квадратными скобками обозначены град или гололедные отложения с указанием их диаметра в мм.
Облачность - указаны через наклонную черту общая и нижняя облачность в баллах и высота нижней границы облаков в метрах; квадратными скобками обозначены формы облаков: Ci - перистые, Cs - перисто-слоистые, Cc - перисто-кучевые, Ac - высококучевые, As - высокослоистые, Sc - слоисто-кучевые, Ns - слоисто-дождевые, Cu - кучевые, Cb - кучево-дождевые. Подробнее классификацию облаков см. в Атласе облаков (PDF).
T - Температура воздуха - температура, измеренная на высоте 2 м над землей.
Td - Температура точки росы - температура, при понижении до которой содержащийся в воздухе водяной пар достигнет насыщения.
f - Относительная влажность воздуха - влажноcть воздуха, измеренная на высоте 2 м над землей.
Te - Эффективная температура - температура, которую ощущает одетый по сезону человек в тени. Характеристика душности погоды. При расчете учитывается влияние влажности воздуха и скорости ветра на теплоощущения человека.
Tes - Эффективная температура на солнце - температура, которую ощущает человек, с поправкой на солнечный нагрев. Характеристика знойности погоды. Зависит от высоты солнца над горизонтом, облачности и скорости ветра. Ночью, в пасмурную погоду, а также при ветре 12 м/с и более поправка равна нулю.
P - Атмосферное давление - приведенное к уровню моря атмосферное давление.
Po - Атмосферное давление - измеренное на уровне метеостанции атмосферное давление.
Tmin - Минимальная температура - минимум температуры воздуха на высоте 2 м над землей.
Tmax - Максимальная температура - максимум температуры воздуха на высоте 2 м над землей.
R - Количество осадков - Количество выпавших осадков за период времени, мм. При наведении курсора мыши на число - период времени, за который выпало указанное количество осадков.
R24 - Количество осадков - Количество выпавших осадков за 24 часа, мм.
S - Снежный покров - Высота снежного покрова, см. При наведении курсора мыши на число - состояние снежного покрова и степень покрытия местности в баллах.